Вернуться в каталог

THOR ABLESTAR DEB

АктивенPO
NORAD 2620·DEBRIS·🇺🇸 United States

Запущен Dec 5, 1963 с Vandenberg Space Force Base

Loading…

Ближайшие Пролёты (ближайшие 24 часа)

TLE

СвежийSource: Space-Track

Эпоха: Sep 14, 2026, 11:06 UTC

1 02620U 63049H   26257.46259568  .00000185  00000-0  23601-3 0  9998
2 02620  89.9131  71.7080 0014436 186.8128 201.7569 13.59790244102522

Отслеживайте THOR ABLESTAR DEB в реальном времени с AllMySat

Download on the App Store